This is the latest recevied weather packets stored in our database for station/object W4GAP. If no packets are shown the sender has not sent any weather packets the latest 10 day(s).
| Time | Temp. | Humidity | Pressure | Rain* | Wind** | Luminosity | Snow |
|---|---|---|---|---|---|---|---|
| 1777643499 | 15° C | 63% | 1011.7 hPa | 0 mm | - | 35 W/m² | - |
| 1777643196 | 15° C | 64% | 1011.4 hPa | 0 mm | - | 38 W/m² | - |
| 1777642892 | 15° C | 64% | 1011.5 hPa | 0 mm | - | 35 W/m² | - |
| 1777642590 | 15° C | 64% | 1011.7 hPa | 0 mm | - | 39 W/m² | - |
| 1777642286 | 14.44° C | 64% | 1011.5 hPa | 0 mm | - | 40 W/m² | - |
| 1777641983 | 14.44° C | 62% | 1011.5 hPa | 0 mm | - | 39 W/m² | - |
| 1777641679 | 14.44° C | 62% | 1011.5 hPa | 0 mm | - | 38 W/m² | - |
| 1777641374 | 14.44° C | 62% | 1011.2 hPa | 0 mm | - | 33 W/m² | - |
| 1777641069 | 14.44° C | 61% | 1011.2 hPa | 0 mm | - | 32 W/m² | - |
| 1777640765 | 14.44° C | 65% | 1011.1 hPa | 0 mm | - | 32 W/m² | - |
| 1777640463 | 14.44° C | 61% | 1011.2 hPa | 0 mm | - | 31 W/m² | - |
| 1777640159 | 14.44° C | 63% | 1010.9 hPa | 0 mm | - | 32 W/m² | - |
| 1777639856 | 14.44° C | 62% | 1011.1 hPa | 0 mm | - | 33 W/m² | - |
| 1777639554 | 14.44° C | 64% | 1011.2 hPa | 0 mm | - | 36 W/m² | - |
| 1777639250 | 14.44° C | 64% | 1011.2 hPa | 0 mm | - | 26 W/m² | - |
| 1777638947 | 13.89° C | 66% | 1011.2 hPa | 0 mm | - | 17 W/m² | - |
| 1777638642 | 13.89° C | 68% | 1011.1 hPa | 0 mm | - | 19 W/m² | - |
| 1777638339 | 13.89° C | 65% | 1011 hPa | 0 mm | - | 17 W/m² | - |
| 1777638035 | 13.89° C | 66% | 1010.9 hPa | 0 mm | - | 21 W/m² | - |
| 1777637732 | 13.33° C | 71% | 1011.1 hPa | 0 mm | - | 15 W/m² | - |
| 1777637428 | 13.33° C | 76% | 1010.7 hPa | 0 mm | - | 12 W/m² | - |
| 1777637126 | 13.33° C | 74% | 1010.6 hPa | 0 mm | - | 12 W/m² | - |
| 1777636822 | 13.33° C | 76% | 1010.5 hPa | 0 mm | - | 11 W/m² | - |
| 1777636518 | 13.33° C | 77% | 1010.5 hPa | 0 mm | - | 9 W/m² | - |
| 1777636215 | 13.33° C | 77% | 1010.3 hPa | 0 mm | - | 7 W/m² | - |
* Rain latest hour (hover to see other rain measurements)
** Current wind speed in m/s (hover to see current wind gust speed)